Regional Weather Roundup
Issued by NWS Burlington, VT

Current Version | Previous Version | Text Only | Print | Product List | Glossary On
Versions: 1 2 3 4 5 6 7 8 9 10 11 12 13 14 15 16 17 18 19 20 21 22 23 24 25 26 27 28 29 30 31 32 33 34 35 36 37 38 39 40 41 42 43 44 45 46 47 48 49 50
000
ASUS41 KBTV 200830
RWRBTV
VERMONT REGIONAL WEATHER ROUNDUP
NATIONAL WEATHER SERVICE BURLINGTON VT
400 AM EDT SUN APR 20 2014

NOTE: "FAIR" INDICATES FEW OR NO CLOUDS BELOW 12,000 FEET WITH NO
SIGNIFICANT WEATHER AND/OR OBSTRUCTIONS TO VISIBILITY.

* THESE REPORTS ARE NOT UNDER NWS QUALITY CONTROL AND/OR DO NOT
  REPORT WEATHER SUCH AS PRECIPITATION AND FOG.

VTZ001>019-200900-
_____VERMONT_____


CITY           SKY/WX    TMP DP  RH WIND       PRES   REMARKS
BURLINGTON     SUNNY     29  25  85 NE5       30.46S
MONTPELIER     SUNNY     24  20  84 CALM      30.47S
MORRISVILLE    SUNNY     24  21  88 CALM      30.47S
ST. JOHNSBURY*   N/A     25  21  85 MISG      30.45R
LYNDONVILLE*   FAIR      26  20  77 CALM      30.45S
MIDDLEBURY*    FAIR      29  24  81 SE5       30.44R
RUTLAND*       SUNNY     28  21  74 SE8       30.43R
SPRINGFIELD    SUNNY     28  23  81 CALM      30.44R
HIGHGATE*      FAIR      31  27  84 E5        30.48R
NEWPORT*       FAIR      26  21  82 W3        30.46S
BENNINGTON     SUNNY     31  22  69 CALM      30.42R
GALLUP MILLS*    N/A     19 N/A N/A MISG        N/A
UNION VILLAGE*   N/A     27 N/A N/A MISG        N/A
MT. MANSFIELD*   N/A     27 N/A N/A NE15        N/A  WCI  15

_____LAKE CHAMPLAIN_____


CITY           SKY/WX    TMP DP  RH WIND       PRES   REMARKS
BURTON ISLAND*   N/A     32  30  93 NE1         N/A
COLCHESTER RF*   N/A     34  32  93 N5          N/A
DIAMOND ISL*     N/A     39  23  52 NW14        N/A

$$

NYZ007-026>031-035-052-083-200900-
_____NORTHERN NEW YORK_____


CITY           SKY/WX    TMP DP  RH WIND       PRES   REMARKS
PLATTSBURGH    SUNNY     26  21  81 CALM      30.46S
SARANAC LAKE   SUNNY     17  15  92 CALM      30.40R
MASSENA        SUNNY     25  22  88 CALM      30.47R
OGDENSBURG*    SUNNY     28  28 100 CALM      30.45F
POTSDAM*       SUNNY     27  27 100 CALM      30.45S
PARISHVILLE*     N/A     30 N/A N/A SE3         N/A
WATERTOWN      SUNNY     27  22  81 CALM      30.44R
FT DRUM        SUNNY     32  30  90 SE7       30.42S
ALBANY         MOSUNNY   33  23  66 CALM      30.45R
GLENS FALLS    SUNNY     33  25  72 NW3       30.44R

$$
NHZ002-005-011-200900-
_____NEW HAMPSHIRE_____


CITY           SKY/WX    TMP DP  RH WIND       PRES   REMARKS
LEBANON        SUNNY     27  23  85 CALM      30.43S
KEENE          SUNNY     27  19  74 S5        30.46R
MT WASHINGTON  MOSUNNY   21   3  45 N28         N/A  WCI   3
PLYMOUTH         N/A     27  25  93 CALM      30.43S
WHITEFIELD     SUNNY     22  18  85 CALM      30.44R

$$

_____REGIONAL QUEBEC LOCATIONS_____


CITY           SKY/WX    TMP DP  RH WIND       PRES   REMARKS
MONTREAL       SUNNY     32  18  55 N3        30.50R
QUEBEC CITY    SUNNY     28  14  54 N6        30.48R
SHERBROOKE     SUNNY     23  21  93 E5        30.46S

_____REGIONAL ONTARIO LOCATIONS_____


CITY           SKY/WX    TMP DP  RH WIND       PRES   REMARKS
OTTAWA         PTSUNNY   32  19  59 NE7       30.46S

______KEY______
VSB  - VISIBILITY IN MILES
WCI  - WIND CHILL INDEX
HX   - HEAT INDEX
$$
NNNN



USA.gov is the U.S. government's official web portal to all federal, state and local government web resources and services.